Wind_Speed
30 28 27 26 25 23 23 22 21 21 20 19 19 18 18 18 19 19 20 21 22 23 24 25 27 28 29 31 32 33 34 35 37 38 38 39 40 41 41 41 42 42 43
31 30 29 27 26 25 24 23 23 22 22 21 20 20 20 20 20 21 21 22 23 24 25 27 28 29 31 32 33 34 35 37 38 39 40 40 41 41 42 42 43 43 44
33 31 30 29 27 26 26 25 24 23 23 22 22 21 21 21 22 22 22 23 24 25 26 28 29 31 32 34 35 36 37 38 39 40 41 42 42 42 43 43 44 44 45
34 33 31 30 29 28 27 27 26 25 24 24 24 23 23 23 23 23 23 24 25 26 28 29 30 32 34 35 36 37 38 40 41 42 42 43 43 44 44 45 45 46 46
36 34 33 32 30 29 29 28 27 27 26 26 25 25 24 24 24 24 25 26 27 28 29 31 32 33 35 36 37 39 40 41 42 43 43 44 44 45 46 46 46 47 47
37 35 34 33 31 30 30 30 29 28 28 27 27 26 26 25 26 26 26 27 28 29 31 32 33 35 36 38 39 40 41 42 42 43 44 45 46 46 47 47 48 48 48
38 37 35 34 33 32 31 31 30 29 29 29 28 28 27 27 27 28 28 29 30 31 32 34 35 36 37 39 40 41 42 42 43 44 45 46 47 48 48 49 49 49 49
40 38 36 35 34 33 32 32 31 31 31 30 29 29 29 29 29 30 30 30 31 33 34 35 36 37 38 40 41 42 43 43 44 45 46 47 48 49 49 50 50 51 51
41 39 38 37 35 34 33 33 32 31 31 31 31 31 31 31 31 31 32 32 33 34 35 37 38 38 40 41 43 43 44 44 45 46 47 48 49 50 50 51 52 51 51
42 41 39 38 36 35 34 34 33 33 33 32 32 32 32 33 33 33 33 34 34 35 36 38 38 40 41 42 43 44 44 45 46 47 48 49 50 51 51 52 52 52 52
43 42 40 39 37 36 35 35 34 34 33 33 33 33 33 33 33 33 34 35 35 36 37 38 39 41 42 43 44 45 45 47 47 48 49 50 51 52 52 53 53 53 53
42 41 40 39 38 36 36 35 35 34 34 34 34 34 34 34 34 34 35 35 36 37 38 39 40 42 43 44 45 45 46 48 48 48 49 51 52 52 53 53 54 54 53
41 40 40 39 38 37 36 36 35 35 35 35 35 35 34 35 35 35 36 36 37 38 39 40 42 42 43 44 46 46 47 48 48 49 50 51 52 53 54 54 55 55 54
41 41 41 40 39 38 37 36 36 36 35 35 35 35 35 35 35 36 36 37 38 38 40 41 43 44 44 45 46 47 48 48 49 50 51 52 53 54 55 55 55 55 56
41 41 41 41 40 39 38 37 36 36 36 36 35 35 36 36 36 37 38 39 39 39 40 42 43 44 45 47 47 47 48 49 50 51 51 53 54 55 55 56 56 57 58
42 41 41 41 40 39 38 37 37 36 37 36 36 36 37 37 38 38 39 40 40 41 41 42 44 45 46 47 48 48 49 49 50 51 52 54 55 56 56 57 57 58 59
42 42 42 42 41 40 39 38 38 37 37 37 37 37 38 38 39 39 40 40 41 42 42 42 44 45 47 48 48 48 49 50 51 52 53 55 56 56 57 58 59 59 60
44 43 43 42 42 41 40 39 39 38 38 38 38 38 39 39 40 40 40 41 42 43 43 42 44 45 46 47 48 48 49 50 51 52 54 55 56 57 58 59 60 61 61
45 44 44 42 41 41 40 40 39 39 38 38 38 39 39 40 40 40 41 41 42 43 43 43 43 45 46 47 47 48 49 50 51 53 55 56 56 57 59 60 61 62 62
46 46 44 43 42 41 40 40 40 39 38 38 39 39 40 41 41 41 41 42 42 42 43 43 44 45 46 47 48 48 49 51 52 53 55 56 57 59 60 61 62 62 61
46 46 45 44 42 41 41 40 40 39 38 39 39 40 41 41 41 41 41 41 42 42 43 44 44 45 46 47 48 49 49 51 52 53 55 57 59 60 60 61 62 62 61
48 47 46 45 44 42 41 41 40 39 40 40 40 40 41 40 40 41 41 42 42 43 44 45 45 45 46 47 48 48 50 50 52 54 56 57 59 60 60 61 62 61 61
49 48 47 46 45 43 42 41 40 39 39 39 40 40 41 40 41 41 41 42 42 42 43 44 44 44 45 46 48 49 50 51 53 54 56 58 59 60 61 62 61 61 60
49 48 46 45 44 43 42 41 40 40 40 40 40 40 40 40 40 40 41 41 41 42 42 42 43 44 45 46 47 49 50 52 53 55 57 58 58 60 61 62 61 60 58
48 48 47 45 43 42 41 41 42 42 41 40 41 40 40 40 39 40 40 40 40 41 42 42 42 43 45 46 47 49 50 52 54 56 57 58 58 59 60 60 59 57 56
48 47 46 45 44 43 42 42 42 41 41 40 40 40 39 39 39 39 39 39 39 40 40 41 42 43 45 46 47 49 51 52 54 55 56 57 58 59 57 56 56 55 55
Wind_Direction
234 237 239 240 243 244 246 249 252 256 258 261 266 271 276 282 287 292 297 302 306 309 313 316 318 320 323 324 324 325 325 325 326 326 326 326 325 325 324 323 323 322 322
234 237 238 240 243 245 246 249 253 256 258 261 265 270 275 280 286 290 295 300 305 308 311 315 317 319 320 322 323 323 323 324 324 324 324 324 323 323 323 322 322 322 321
234 236 238 240 242 244 246 249 253 255 258 261 264 269 274 279 284 288 293 298 303 306 309 313 316 318 319 320 321 321 322 322 322 323 323 322 322 322 322 321 321 321 320
234 236 238 241 242 245 247 249 253 256 258 261 264 269 273 278 282 286 291 296 301 304 308 311 314 316 318 319 320 320 320 321 321 321 321 321 320 321 321 320 320 320 319
234 236 238 241 243 246 248 250 253 256 258 261 264 268 273 277 281 285 290 294 299 303 306 310 312 314 316 317 318 319 319 319 320 320 320 320 319 320 320 320 320 319 319
234 236 238 241 244 246 249 250 252 255 258 260 263 267 272 276 280 285 288 293 297 302 305 308 310 312 314 315 316 317 318 318 318 318 318 318 319 319 319 319 319 319 318
234 236 239 242 244 247 249 250 252 255 258 260 263 266 271 275 279 284 287 291 296 300 304 306 308 310 312 314 315 316 316 316 316 317 317 317 317 318 318 318 318 318 317
234 237 239 242 245 248 250 252 253 255 257 260 263 267 271 274 278 283 286 290 294 298 302 304 307 309 311 312 313 314 315 315 315 315 316 316 316 317 317 317 318 317 317
234 237 239 243 245 248 250 252 254 256 258 260 263 267 271 274 278 281 285 289 294 297 301 303 306 307 309 311 312 313 313 314 314 314 315 315 315 316 316 317 317 317 317
234 237 240 242 245 247 249 252 254 256 258 260 263 267 270 274 277 281 284 289 293 297 300 302 304 306 308 309 311 312 312 312 313 313 314 314 315 315 316 316 317 317 316
236 238 240 242 244 246 249 252 254 256 258 260 263 266 270 273 276 280 284 288 292 295 298 301 303 305 306 308 310 311 311 311 312 313 313 314 315 315 315 316 316 316 315
235 238 240 241 244 246 248 252 254 255 257 260 263 266 269 273 276 280 283 287 291 295 298 300 302 304 306 307 309 310 310 311 312 312 313 314 314 315 315 316 316 315 314
234 237 238 240 242 245 248 251 253 255 258 260 263 266 269 273 276 279 283 286 290 294 297 299 301 303 305 307 308 309 310 311 311 312 313 314 314 314 315 315 316 315 314
233 235 237 238 241 244 247 251 254 256 258 261 264 267 270 273 277 280 283 286 290 293 295 298 300 302 304 306 308 309 309 310 311 312 313 314 314 314 315 315 315 315 314
233 235 236 238 240 243 247 251 254 256 258 261 264 267 271 274 277 281 283 287 290 292 295 297 299 301 304 306 308 308 309 310 311 312 313 314 314 314 314 315 315 315 314
232 234 236 238 241 244 247 250 253 255 258 261 264 268 271 275 278 281 283 286 289 292 294 297 299 301 303 306 307 308 309 310 311 312 313 314 314 314 315 315 315 315 315
233 235 237 239 241 243 247 250 253 255 258 261 265 268 271 275 278 281 283 286 289 292 294 296 298 301 303 305 306 308 309 310 312 312 313 314 315 315 315 315 316 315 315
232 235 237 239 241 244 247 250 252 255 258 261 265 268 272 275 278 281 284 287 290 292 295 296 299 301 303 305 307 308 309 310 311 312 313 314 315 315 315 316 316 315 315
233 234 236 239 241 244 247 250 252 255 258 261 265 269 272 275 278 281 284 287 290 292 295 297 299 301 303 305 307 308 310 310 312 313 314 314 315 315 316 316 316 316 316
232 234 236 239 242 245 247 250 253 255 258 262 265 268 272 275 278 281 284 287 290 292 295 297 300 301 303 305 307 309 309 311 312 313 314 315 315 316 316 316 316 316 316
232 234 237 239 242 245 247 250 253 256 259 262 266 268 271 275 278 281 284 287 289 292 295 297 300 302 304 306 307 309 310 311 312 313 315 316 316 316 316 317 317 317 316
232 234 237 239 242 245 248 250 253 257 260 264 266 269 272 275 278 281 284 287 289 292 294 297 299 302 304 306 307 309 311 312 313 314 315 316 316 317 317 317 317 317 317
234 236 237 239 241 244 246 250 253 257 260 263 267 271 273 276 278 281 283 287 289 292 295 297 300 302 304 306 308 310 311 312 313 314 315 317 317 317 317 318 318 317 318
235 236 238 240 241 243 246 249 253 257 261 265 268 271 273 276 279 281 283 287 289 292 295 298 300 302 304 307 309 310 311 313 314 316 317 318 318 318 318 318 318 319 319
235 237 238 240 241 243 246 249 253 257 262 266 269 271 274 277 279 281 284 287 290 292 295 298 300 302 305 307 309 310 312 314 316 317 318 318 318 319 319 319 319 320 321
236 238 238 240 242 244 247 250 254 257 261 265 268 271 274 277 280 282 284 287 290 293 296 298 300 303 305 307 309 311 313 315 317 318 318 318 319 320 320 320 320 322 323
Height
5828 5831 5834 5836 5838 5840 5842 5844 5845 5846 5847 5848 5848 5848 5848 5848 5848 5847 5846 5844 5843 5841 5839 5836 5834 5831 5828 5824 5821 5817 5813 5809 5805 5800 5795 5791 5786 5781 5775 5770 5765 5760 5755
5823 5826 5828 5831 5833 5836 5838 5839 5840 5842 5843 5843 5844 5844 5844 5844 5843 5843 5842 5840 5838 5836 5834 5832 5829 5826 5823 5819 5816 5812 5808 5804 5799 5794 5789 5784 5779 5774 5769 5764 5759 5753 5748
5817 5820 5823 5826 5828 5831 5833 5834 5836 5837 5838 5839 5839 5840 5840 5839 5839 5838 5837 5836 5834 5832 5830 5827 5824 5821 5818 5814 5810 5806 5802 5798 5793 5788 5783 5778 5773 5768 5762 5757 5752 5746 5741
5811 5814 5817 5820 5823 5825 5827 5829 5831 5832 5833 5834 5835 5835 5835 5835 5834 5833 5832 5831 5829 5827 5825 5822 5819 5816 5812 5809 5805 5801 5796 5792 5787 5782 5777 5771 5766 5761 5755 5750 5744 5739 5733
5804 5808 5811 5814 5817 5820 5822 5824 5825 5827 5828 5829 5829 5830 5830 5830 5829 5828 5827 5826 5824 5822 5819 5817 5813 5810 5807 5803 5799 5794 5790 5785 5780 5775 5770 5765 5759 5754 5748 5742 5736 5731 5725
5798 5802 5805 5808 5811 5814 5816 5818 5820 5821 5822 5823 5824 5824 5825 5824 5824 5823 5822 5820 5819 5816 5814 5811 5808 5804 5801 5797 5793 5788 5784 5779 5774 5768 5763 5757 5752 5746 5740 5735 5729 5723 5717
5791 5795 5799 5802 5805 5807 5809 5812 5813 5815 5816 5817 5818 5819 5819 5819 5818 5817 5816 5815 5813 5811 5808 5805 5802 5798 5795 5790 5786 5782 5777 5772 5767 5761 5756 5750 5744 5738 5733 5727 5721 5714 5708
5784 5788 5792 5795 5798 5801 5803 5805 5807 5809 5810 5811 5812 5813 5813 5813 5812 5811 5810 5809 5807 5804 5802 5799 5795 5792 5788 5784 5779 5775 5770 5765 5759 5754 5748 5742 5736 5730 5724 5718 5712 5705 5699
5777 5781 5784 5788 5791 5794 5796 5798 5800 5802 5804 5805 5806 5807 5807 5807 5806 5805 5804 5802 5800 5798 5795 5792 5789 5785 5781 5777 5772 5767 5762 5757 5752 5746 5740 5734 5728 5722 5716 5710 5703 5696 5689
5769 5773 5777 5781 5784 5787 5789 5791 5794 5795 5797 5798 5799 5800 5800 5800 5799 5798 5797 5796 5794 5791 5788 5785 5782 5778 5774 5769 5765 5760 5755 5749 5744 5738 5732 5726 5720 5714 5707 5701 5694 5687 5680
5761 5765 5770 5773 5776 5779 5782 5784 5787 5788 5790 5791 5792 5792 5793 5792 5792 5792 5790 5789 5787 5784 5781 5778 5775 5771 5766 5762 5757 5752 5747 5742 5736 5730 5724 5718 5711 5705 5698 5691 5684 5677 5670
5753 5758 5762 5765 5769 5772 5775 5777 5779 5781 5783 5784 5785 5785 5786 5785 5785 5784 5783 5781 5779 5777 5774 5771 5767 5763 5759 5754 5749 5744 5739 5733 5727 5721 5715 5709 5702 5696 5689 5682 5675 5668 5660
5746 5750 5754 5757 5761 5764 5767 5770 5772 5774 5775 5776 5777 5778 5778 5778 5777 5777 5776 5774 5772 5770 5766 5763 5759 5755 5751 5746 5741 5736 5731 5725 5719 5713 5707 5700 5693 5686 5679 5672 5665 5657 5650
5737 5741 5745 5749 5753 5756 5759 5762 5764 5766 5768 5769 5770 5770 5770 5770 5770 5769 5768 5766 5765 5762 5759 5755 5751 5747 5743 5738 5733 5728 5722 5716 5710 5704 5697 5691 5684 5677 5670 5662 5655 5647 5639
5729 5733 5737 5741 5745 5749 5752 5754 5757 5759 5760 5761 5762 5763 5763 5763 5762 5761 5760 5758 5757 5754 5752 5747 5743 5739 5734 5729 5724 5719 5713 5707 5701 5695 5688 5681 5674 5667 5660 5652 5644 5636 5628
5720 5724 5729 5733 5737 5741 5744 5747 5749 5751 5752 5754 5754 5755 5755 5755 5754 5753 5752 5750 5747 5745 5743 5739 5734 5730 5725 5720 5715 5710 5704 5698 5692 5685 5679 5672 5664 5657 5649 5641 5633 5625 5616
5712 5717 5721 5725 5729 5733 5736 5738 5741 5743 5744 5746 5747 5747 5747 5746 5746 5745 5743 5741 5739 5736 5734 5731 5726 5721 5717 5712 5706 5701 5695 5689 5682 5676 5669 5662 5654 5646 5638 5630 5622 5613 5604
5704 5708 5712 5716 5720 5724 5727 5730 5732 5734 5736 5738 5738 5739 5739 5738 5738 5736 5735 5733 5730 5727 5725 5722 5718 5713 5708 5703 5698 5692 5686 5680 5673 5667 5659 5652 5644 5636 5628 5619 5610 5601 5592
5695 5700 5704 5708 5712 5716 5719 5722 5724 5726 5728 5729 5730 5731 5730 5730 5729 5728 5726 5724 5721 5718 5716 5713 5709 5704 5699 5694 5689 5683 5677 5671 5664 5657 5650 5642 5634 5626 5617 5608 5599 5589 5580
5687 5691 5696 5700 5703 5707 5710 5713 5715 5717 5719 5721 5722 5722 5722 5721 5721 5719 5717 5715 5712 5710 5707 5704 5700 5695 5690 5685 5680 5674 5668 5662 5655 5648 5640 5632 5623 5615 5606 5596 5588 5578 5568
5677 5682 5687 5691 5695 5698 5701 5704 5707 5709 5710 5712 5713 5713 5713 5713 5712 5710 5709 5706 5704 5701 5698 5695 5691 5686 5681 5676 5671 5665 5659 5653 5646 5638 5630 5622 5613 5605 5595 5585 5575 5566 5556
5668 5673 5678 5682 5686 5690 5693 5695 5698 5700 5702 5703 5704 5704 5704 5704 5703 5701 5699 5697 5695 5692 5689 5686 5682 5677 5672 5667 5662 5656 5650 5644 5638 5631 5622 5612 5603 5593 5584 5574 5564 5554 5544
5659 5664 5669 5673 5677 5681 5684 5686 5689 5691 5693 5694 5695 5695 5695 5695 5694 5692 5690 5688 5686 5683 5680 5677 5673 5668 5663 5658 5653 5647 5640 5634 5627 5619 5611 5603 5592 5582 5572 5562 5552 5542 5532
5650 5655 5659 5664 5668 5672 5674 5677 5680 5682 5684 5685 5686 5687 5686 5686 5685 5683 5681 5680 5677 5675 5671 5668 5664 5659 5654 5649 5644 5638 5631 5624 5617 5609 5600 5593 5583 5572 5560 5550 5540 5530 5520
5640 5645 5650 5655 5659 5662 5665 5668 5671 5673 5675 5676 5677 5677 5677 5677 5676 5674 5673 5671 5669 5666 5662 5659 5655 5650 5645 5640 5634 5628 5622 5615 5608 5599 5590 5581 5573 5563 5551 5539 5529 5519 5510
5631 5636 5641 5645 5650 5653 5657 5659 5662 5664 5666 5667 5668 5668 5668 5668 5667 5665 5664 5662 5660 5657 5654 5650 5646 5641 5636 5631 5625 5619 5612 5605 5597 5590 5580 5571 5561 5552 5543 5531 5519 5510 5500